UAE332 OMDB-RPLL

Flight info

Callsign UAE332
Flight time N/A
Altitude 33000
Route IVURO M428 MUNGA A777 VAXIM L301 RASKI L639 BPL A791 CEA B465 CTG A599 LINSO/K0932S1005 A599 POU B330 TAMOT/N0505F330 B330 BIGEX DCT POVAM DCT NOPER V642 NOMAN A461 AVMUP W16 TADEL TADEL3R
Aircraft B77W/H-SDE1E2E3FGHIJ2J3J4J5M1RWXY/LB1D1

Departure

Time 2026-04-21 00:13
Airport Dubai International Airport (OMDB)

Arrival

Time N/A
Airport Ninoy Aquino International Airport (RPLL)
Time Latitude Longitude Altitude Speed Heading
2026-04-20 21:49 25.24767 55.36499 28 ft 0 kts 211°
2026-04-20 23:54 25.24772 55.36502 20 ft 0 kts 211°
2026-04-21 00:01 25.24781 55.36508 27 ft 4 kts 211°
2026-04-21 00:01 25.24804 55.36524 30 ft 4 kts 211°
2026-04-21 00:02 25.24825 55.36538 30 ft 3 kts 212°
2026-04-21 00:02 25.24841 55.36555 31 ft 4 kts 265°
2026-04-21 00:02 25.24835 55.36582 31 ft 4 kts 300°
2026-04-21 00:02 25.24826 55.36599 31 ft 1 kts 301°
2026-04-21 00:03 25.24824 55.36601 31 ft 0 kts 301°
2026-04-21 00:04 25.24825 55.36600 31 ft 1 kts 301°
2026-04-21 00:04 25.24850 55.36555 31 ft 11 kts 302°
2026-04-21 00:05 25.24894 55.36479 29 ft 13 kts 302°
2026-04-21 00:05 25.24947 55.36384 28 ft 15 kts 302°
2026-04-21 00:05 25.25016 55.36262 28 ft 26 kts 302°
2026-04-21 00:05 25.25112 55.36090 30 ft 26 kts 302°
2026-04-21 00:06 25.25209 55.35918 29 ft 26 kts 302°
2026-04-21 00:06 25.25306 55.35745 29 ft 26 kts 302°
2026-04-21 00:06 25.25403 55.35573 29 ft 26 kts 302°
2026-04-21 00:06 25.25509 55.35384 29 ft 31 kts 302°
2026-04-21 00:07 25.25606 55.35212 27 ft 21 kts 302°
2026-04-21 00:07 25.25726 55.35186 28 ft 21 kts 29°
2026-04-21 00:07 25.25869 55.35281 32 ft 25 kts 31°
2026-04-21 00:07 25.25996 55.35402 26 ft 27 kts 63°
2026-04-21 00:08 25.25942 55.35640 26 ft 35 kts 122°
2026-04-21 00:08 25.25795 55.35901 27 ft 37 kts 121°
2026-04-21 00:08 25.25664 55.36135 27 ft 35 kts 122°
2026-04-21 00:08 25.25528 55.36375 27 ft 39 kts 121°
2026-04-21 00:09 25.25388 55.36626 26 ft 37 kts 122°
2026-04-21 00:09 25.25257 55.36859 27 ft 34 kts 122°
2026-04-21 00:09 25.25135 55.37075 28 ft 32 kts 122°
2026-04-21 00:09 25.25022 55.37274 28 ft 30 kts 122°
2026-04-21 00:10 25.24912 55.37470 28 ft 30 kts 122°
2026-04-21 00:10 25.24802 55.37666 28 ft 30 kts 122°
2026-04-21 00:10 25.24707 55.37836 27 ft 20 kts 122°
2026-04-21 00:10 25.24663 55.37917 27 ft 11 kts 107°
2026-04-21 00:11 25.24706 55.37982 29 ft 11 kts 32°
2026-04-21 00:11 25.24769 55.38026 30 ft 10 kts 30°
2026-04-21 00:11 25.24823 55.37995 30 ft 8 kts 303°
2026-04-21 00:11 25.24872 55.37909 30 ft 28 kts 302°
2026-04-21 00:12 25.25099 55.37499 32 ft 97 kts 301°
2026-04-21 00:12 25.25569 55.36652 29 ft 158 kts 301°
2026-04-21 00:12 25.26225 55.35467 104 ft 195 kts 301°
2026-04-21 00:12 25.26909 55.34176 659 ft 196 kts 300°
2026-04-21 00:13 25.27613 55.32895 1305 ft 193 kts 302°
2026-04-21 00:13 25.28321 55.31637 1907 ft 193 kts 303°
2026-04-21 00:13 25.29059 55.30376 2314 ft 201 kts 311°
2026-04-21 00:13 25.30265 55.29536 2450 ft 216 kts 349°
2026-04-21 00:14 25.31805 55.29507 2759 ft 227 kts
2026-04-21 00:14 25.33380 55.29553 3273 ft 230 kts
2026-04-21 00:14 25.34988 55.29592 3828 ft 232 kts
2026-04-21 00:14 25.36615 55.29634 4393 ft 235 kts
2026-04-21 00:15 25.38264 55.29675 4946 ft 237 kts
2026-04-21 00:15 25.39847 55.30103 5347 ft 243 kts 32°
2026-04-21 00:15 25.41097 55.31459 5500 ft 261 kts 51°
2026-04-21 00:15 25.42284 55.33098 5696 ft 284 kts 50°
2026-04-21 00:16 25.43585 55.34866 5888 ft 307 kts 50°
2026-04-21 00:16 25.44979 55.36768 6071 ft 330 kts 50°
2026-04-21 00:16 25.46469 55.38806 6358 ft 347 kts 50°
2026-04-21 00:16 25.48012 55.40917 6809 ft 358 kts 50°
2026-04-21 00:17 25.49576 55.43102 7388 ft 364 kts 51°
2026-04-21 00:17 25.51103 55.45308 8036 ft 365 kts 52°
2026-04-21 00:17 25.52258 55.47836 8438 ft 378 kts 74°
2026-04-21 00:17 25.52427 55.50763 9032 ft 386 kts 96°
2026-04-21 00:18 25.51673 55.53621 9701 ft 391 kts 116°
2026-04-21 00:18 25.50258 55.56201 10181 ft 394 kts 123°
2026-04-21 00:18 25.48740 55.58759 10781 ft 399 kts 123°
2026-04-21 00:18 25.47215 55.61337 11544 ft 400 kts 123°
2026-04-21 00:19 25.45706 55.63938 12069 ft 403 kts 123°
2026-04-21 00:19 25.44219 55.66542 12717 ft 407 kts 122°
2026-04-21 00:19 25.42874 55.69309 13615 ft 408 kts 114°
2026-04-21 00:19 25.41875 55.72254 14340 ft 412 kts 108°
2026-04-21 00:20 25.41175 55.75358 14965 ft 418 kts 103°
2026-04-21 00:20 25.40536 55.78525 15571 ft 424 kts 103°
2026-04-21 00:20 25.39886 55.81725 16223 ft 429 kts 104°
2026-04-21 00:20 25.39219 55.84967 16890 ft 434 kts 104°
2026-04-21 00:21 25.38538 55.88243 17544 ft 438 kts 104°
2026-04-21 00:21 25.37856 55.91496 18192 ft 442 kts 104°
2026-04-21 00:21 25.37154 55.94827 18720 ft 447 kts 104°
2026-04-21 00:21 25.36442 55.98200 19241 ft 452 kts 104°
2026-04-21 00:22 25.35722 56.01607 19768 ft 457 kts 104°
2026-04-21 00:22 25.34994 56.05048 20289 ft 462 kts 104°
2026-04-21 00:22 25.34260 56.08519 20829 ft 466 kts 104°
2026-04-21 00:22 25.33756 56.10892 21179 ft 470 kts 104°
2026-04-21 00:23 25.33013 56.14374 21679 ft 474 kts 105°
2026-04-21 00:23 25.31694 56.19058 22338 ft 479 kts 111°
2026-04-21 00:23 25.30931 56.21345 22675 ft 482 kts 112°
2026-04-21 00:23 25.29753 56.24830 23165 ft 486 kts 111°
2026-04-21 00:24 25.28569 56.28358 23595 ft 490 kts 111°
2026-04-21 00:24 25.27398 56.31902 24039 ft 492 kts 111°
2026-04-21 00:24 25.26231 56.35468 24580 ft 493 kts 111°
2026-04-21 00:24 25.25065 56.39035 25036 ft 495 kts 111°
2026-04-21 00:25 25.23882 56.42630 25457 ft 498 kts 111°
2026-04-21 00:25 25.22689 56.46240 25876 ft 501 kts 111°
2026-04-21 00:25 25.21491 56.49861 26308 ft 504 kts 111°
2026-04-21 00:25 25.20302 56.53455 26739 ft 506 kts 111°
2026-04-21 00:26 25.19093 56.57110 27170 ft 508 kts 111°
2026-04-21 00:26 25.17849 56.60771 27599 ft 510 kts 113°
2026-04-21 00:26 25.16513 56.64400 28008 ft 511 kts 114°
2026-04-21 00:26 25.15122 56.68024 28391 ft 514 kts 115°
2026-04-21 00:27 25.13707 56.71665 28745 ft 516 kts 115°
2026-04-21 00:27 25.12290 56.75320 29090 ft 519 kts 115°
2026-04-21 00:27 25.10879 56.78990 29433 ft 521 kts 114°
2026-04-21 00:27 25.09471 56.82681 29773 ft 522 kts 114°
2026-04-21 00:28 25.08069 56.86376 30120 ft 522 kts 114°
2026-04-21 00:28 25.06671 56.90068 30526 ft 520 kts 114°
2026-04-21 00:28 25.05280 56.93743 30943 ft 518 kts 114°
2026-04-21 00:28 25.03891 56.97408 31334 ft 517 kts 114°
2026-04-21 00:29 25.02571 57.00886 31667 ft 516 kts 114°
2026-04-21 00:29 25.01202 57.04488 32003 ft 516 kts 114°
2026-04-21 00:29 24.99814 57.08134 32355 ft 515 kts 114°
2026-04-21 00:29 24.98432 57.11760 32711 ft 514 kts 114°
2026-04-21 00:30 24.97039 57.15410 32787 ft 517 kts 114°
2026-04-21 00:30 24.95645 57.19064 33055 ft 516 kts 114°
2026-04-21 00:30 24.94257 57.22694 33506 ft 512 kts 113°
2026-04-21 00:30 24.92881 57.26295 33926 ft 509 kts 113°
2026-04-21 00:31 24.91504 57.29892 34162 ft 510 kts 113°
2026-04-21 00:31 24.90122 57.33502 34271 ft 513 kts 113°
2026-04-21 00:31 24.88729 57.37134 34420 ft 515 kts 113°
2026-04-21 00:31 24.87354 57.40717 34639 ft 515 kts 113°
2026-04-21 00:32 24.85957 57.44357 34730 ft 517 kts 112°
2026-04-21 00:32 24.83150 57.51656 34792 ft 517 kts 112°
2026-04-21 00:33 24.80345 57.58940 34791 ft 515 kts 112°
2026-04-21 00:33 24.77546 57.66197 34793 ft 514 kts 112°
2026-04-21 00:34 24.74755 57.73422 34801 ft 512 kts 112°
2026-04-21 00:34 24.72117 57.80645 34799 ft 511 kts 109°
2026-04-21 00:35 24.69815 57.88045 34799 ft 511 kts 108°
2026-04-21 00:35 24.67535 57.95464 34808 ft 512 kts 108°
2026-04-21 00:36 24.65281 58.02708 34798 ft 512 kts 108°
2026-04-21 00:36 24.62954 58.10117 34801 ft 512 kts 108°
2026-04-21 00:37 24.60622 58.17520 34799 ft 512 kts 108°
2026-04-21 00:37 24.58305 58.24869 34806 ft 512 kts 108°
2026-04-21 00:38 24.55969 58.32267 34799 ft 512 kts 108°
2026-04-21 00:38 24.53631 58.39656 34799 ft 512 kts 108°
2026-04-21 00:39 24.51290 58.47040 34797 ft 511 kts 109°
2026-04-21 00:39 24.48950 58.54408 34802 ft 511 kts 109°
2026-04-21 00:40 24.46605 58.61776 34788 ft 510 kts 109°
2026-04-21 00:40 24.44279 58.69076 34800 ft 510 kts 109°
2026-04-21 00:41 24.41881 58.76422 34805 ft 511 kts 112°
2026-04-21 00:41 24.38842 58.83460 34809 ft 511 kts 116°
2026-04-21 00:42 24.35670 58.90446 34800 ft 512 kts 116°
2026-04-21 00:42 24.32517 58.97456 34801 ft 512 kts 116°
2026-04-21 00:43 24.29462 59.04309 34796 ft 512 kts 116°
2026-04-21 00:43 24.26356 59.11281 34803 ft 512 kts 116°
2026-04-21 00:44 24.23224 59.18295 34803 ft 512 kts 116°
2026-04-21 00:44 24.20084 59.25311 34802 ft 512 kts 116°
2026-04-21 00:45 24.15372 59.35820 34802 ft 512 kts 116°
2026-04-21 00:45 24.12231 59.42814 34801 ft 512 kts 116°
2026-04-21 00:46 24.09092 59.49793 34807 ft 511 kts 116°
2026-04-21 00:46 24.05945 59.56766 34798 ft 510 kts 116°
2026-04-21 00:47 24.02803 59.63709 34804 ft 509 kts 116°
2026-04-21 00:47 23.99690 59.70580 34801 ft 509 kts 117°
2026-04-21 00:48 23.96544 59.77516 34805 ft 508 kts 117°
2026-04-21 00:48 23.93403 59.84432 34798 ft 508 kts 117°
2026-04-21 00:49 23.90263 59.91338 34819 ft 507 kts 117°
2026-04-21 00:49 23.87125 59.98227 34797 ft 505 kts 117°
2026-04-21 00:50 23.84068 60.04928 34801 ft 503 kts 117°
2026-04-21 00:50 23.80953 60.11748 34802 ft 501 kts 117°
2026-04-21 00:51 23.77857 60.18516 34824 ft 500 kts 118°
2026-04-21 00:51 23.74753 60.25291 34806 ft 498 kts 118°
2026-04-21 00:52 23.71655 60.32042 34808 ft 496 kts 117°
2026-04-21 00:52 23.68567 60.38765 34808 ft 495 kts 118°
2026-04-21 00:53 23.65483 60.45468 34811 ft 494 kts 118°
2026-04-21 00:53 23.62401 60.52157 34828 ft 494 kts 117°
2026-04-21 00:54 23.59326 60.58821 34826 ft 494 kts 117°
2026-04-21 00:54 23.56230 60.65524 34821 ft 495 kts 117°
2026-04-21 00:55 23.53123 60.72238 34822 ft 496 kts 117°
2026-04-21 00:55 23.50005 60.78970 34829 ft 498 kts 117°
2026-04-21 00:56 23.46879 60.85707 34828 ft 499 kts 117°
2026-04-21 00:56 23.43746 60.92451 34832 ft 499 kts 117°
2026-04-21 00:57 23.40605 60.99204 34833 ft 499 kts 117°
2026-04-21 00:57 23.37539 61.05789 34835 ft 499 kts 118°
2026-04-21 00:58 23.34420 61.12476 34833 ft 498 kts 117°
2026-04-21 00:58 23.31970 61.19518 34840 ft 499 kts 105°
2026-04-21 00:59 23.30812 61.26947 34840 ft 499 kts 96°
2026-04-21 00:59 23.30195 61.34472 34843 ft 499 kts 95°
2026-04-21 01:00 23.29580 61.41993 34837 ft 499 kts 96°
2026-04-21 01:00 23.28926 61.49509 34844 ft 499 kts 96°
2026-04-21 01:01 23.28254 61.56967 34841 ft 498 kts 96°
2026-04-21 01:01 23.27572 61.64470 34841 ft 498 kts 96°
2026-04-21 01:02 23.26886 61.71985 34845 ft 498 kts 96°
2026-04-21 01:02 23.26199 61.79483 34843 ft 498 kts 96°
2026-04-21 01:03 23.25510 61.86980 34849 ft 498 kts 96°
2026-04-21 01:03 23.24815 61.94491 34850 ft 498 kts 96°
2026-04-21 01:04 23.24140 62.01748 34844 ft 497 kts 96°
2026-04-21 01:04 23.23441 62.09231 34849 ft 497 kts 96°
2026-04-21 01:05 23.22740 62.16701 34847 ft 496 kts 96°
2026-04-21 01:05 23.22035 62.24167 34852 ft 496 kts 96°
2026-04-21 01:06 23.21326 62.31640 34851 ft 496 kts 96°
2026-04-21 01:06 23.20615 62.39092 34850 ft 495 kts 96°
2026-04-21 01:07 23.19902 62.46529 34855 ft 495 kts 96°
2026-04-21 01:07 23.19189 62.53935 34861 ft 495 kts 97°
2026-04-21 01:08 23.18470 62.61365 34855 ft 494 kts 97°
2026-04-21 01:08 23.17748 62.68782 34851 ft 493 kts 97°
2026-04-21 01:09 23.17025 62.76177 34855 ft 492 kts 97°
2026-04-21 01:09 23.16300 62.83559 34861 ft 491 kts 97°
2026-04-21 01:10 23.15571 62.90940 34862 ft 490 kts 97°
2026-04-21 01:10 23.14844 62.98269 34858 ft 490 kts 97°
2026-04-21 01:11 23.14127 63.05460 34861 ft 490 kts 97°
2026-04-21 01:11 23.13391 63.12811 34859 ft 489 kts 97°
2026-04-21 01:12 23.12776 63.18930 34858 ft 490 kts 97°
2026-04-21 01:12 23.12032 63.26289 34861 ft 490 kts 97°
2026-04-21 01:13 23.11165 63.34838 34863 ft 490 kts 97°
2026-04-21 01:13 23.10539 63.40974 34859 ft 491 kts 97°
2026-04-21 01:14 23.09784 63.48344 34858 ft 491 kts 97°
2026-04-21 01:14 23.09026 63.55711 34857 ft 490 kts 97°
2026-04-21 01:15 23.08264 63.63079 34861 ft 490 kts 97°
2026-04-21 01:15 23.07501 63.70434 34860 ft 490 kts 97°
2026-04-21 01:16 23.06733 63.77792 34861 ft 490 kts 97°
2026-04-21 01:16 23.05963 63.85150 34864 ft 490 kts 97°
2026-04-21 01:17 23.05209 63.92456 34864 ft 490 kts 97°
2026-04-21 01:17 23.04470 63.99814 34864 ft 490 kts 97°
2026-04-21 01:18 23.03746 64.07000 34865 ft 490 kts 96°
2026-04-21 01:18 23.02995 64.14372 34864 ft 491 kts 96°
2026-04-21 01:19 23.02240 64.21749 34867 ft 492 kts 97°
2026-04-21 01:19 23.01478 64.29148 34860 ft 493 kts 97°
2026-04-21 01:20 23.00713 64.36546 34866 ft 493 kts 96°
2026-04-21 01:20 22.99952 64.43872 34870 ft 493 kts 96°
2026-04-21 01:21 22.99181 64.51268 34862 ft 493 kts 97°
2026-04-21 01:21 22.98407 64.58651 34859 ft 492 kts 96°
2026-04-21 01:22 22.97630 64.66035 34862 ft 492 kts 97°
2026-04-21 01:22 22.96851 64.73407 34873 ft 492 kts 97°
2026-04-21 01:23 22.96067 64.80790 34871 ft 492 kts 97°
2026-04-21 01:23 22.95732 64.88207 34871 ft 492 kts 90°
2026-04-21 01:24 22.95818 64.95631 34863 ft 493 kts 89°
2026-04-21 01:24 22.95905 65.02862 34868 ft 493 kts 89°
2026-04-21 01:25 22.95960 65.10304 34860 ft 493 kts 90°
2026-04-21 01:25 22.95996 65.17739 34872 ft 492 kts 90°
2026-04-21 01:26 22.96025 65.25157 34859 ft 491 kts 90°
2026-04-21 01:26 22.96051 65.32560 34866 ft 489 kts 89°
2026-04-21 01:27 22.96076 65.39941 34866 ft 489 kts 90°
2026-04-21 01:27 22.96098 65.47263 34858 ft 489 kts 90°
2026-04-21 01:28 22.96116 65.54640 34870 ft 489 kts 90°
2026-04-21 01:28 22.96130 65.62014 34872 ft 489 kts 89°
2026-04-21 01:29 22.96141 65.69414 34867 ft 490 kts 89°
2026-04-21 01:29 22.96149 65.76814 34864 ft 490 kts 89°
2026-04-21 01:30 22.96154 65.84230 34867 ft 491 kts 89°
2026-04-21 01:30 22.96154 65.91636 34862 ft 491 kts 89°
2026-04-21 01:31 22.96151 65.99004 34867 ft 491 kts 89°
2026-04-21 01:31 22.96146 66.06247 34864 ft 491 kts 89°
2026-04-21 01:32 22.96137 66.13658 34866 ft 490 kts 89°
2026-04-21 01:32 22.96124 66.21059 34865 ft 490 kts 89°
2026-04-21 01:33 22.96107 66.28449 34870 ft 490 kts 89°
2026-04-21 01:33 22.96088 66.35848 34865 ft 490 kts 89°
2026-04-21 01:34 22.96065 66.43196 34865 ft 490 kts 89°
2026-04-21 01:34 22.96039 66.50600 34867 ft 490 kts 89°
2026-04-21 01:35 22.96009 66.57989 34868 ft 490 kts 89°
2026-04-21 01:35 22.95975 66.65393 34863 ft 491 kts 89°
2026-04-21 01:36 22.95939 66.72812 34867 ft 492 kts 89°
2026-04-21 01:36 22.95899 66.80233 34866 ft 492 kts 89°
2026-04-21 01:37 22.95855 66.87666 34866 ft 493 kts 89°
2026-04-21 01:37 22.95809 66.95056 34865 ft 493 kts 88°
2026-04-21 01:38 22.95793 67.02327 34866 ft 493 kts 88°
2026-04-21 01:38 22.95820 67.09773 34875 ft 492 kts 88°
2026-04-21 01:39 22.95843 67.17196 34862 ft 491 kts 88°
2026-04-21 01:39 22.95855 67.24596 34867 ft 490 kts 88°
2026-04-21 01:40 22.95861 67.31987 34863 ft 489 kts 88°
2026-04-21 01:40 22.95864 67.39305 34866 ft 488 kts 88°
2026-04-21 01:41 22.95863 67.46665 34866 ft 487 kts 88°
2026-04-21 01:41 22.95859 67.54018 34867 ft 487 kts 88°
2026-04-21 01:42 22.95852 67.61380 34869 ft 488 kts 88°
2026-04-21 01:42 22.95841 67.68736 34865 ft 488 kts 88°
2026-04-21 01:43 22.95827 67.76107 34866 ft 488 kts 88°
2026-04-21 01:43 22.95810 67.83470 34863 ft 488 kts 88°
2026-04-21 01:44 22.95796 67.90795 34863 ft 488 kts 88°
2026-04-21 01:44 22.95807 67.98166 34863 ft 488 kts 88°
2026-04-21 01:45 22.95817 68.05376 34863 ft 488 kts 88°
2026-04-21 01:45 22.95820 68.12745 34863 ft 488 kts 88°
2026-04-21 01:46 22.95818 68.20073 34868 ft 488 kts 87°
2026-04-21 01:46 22.95812 68.27437 34864 ft 487 kts 87°
2026-04-21 01:47 22.95805 68.34776 34864 ft 486 kts 87°
2026-04-21 01:47 22.95616 68.42096 34867 ft 485 kts 90°
2026-04-21 01:48 22.95177 68.49406 34869 ft 485 kts 91°
2026-04-21 01:48 22.94719 68.56703 34880 ft 484 kts 91°
2026-04-21 01:49 22.94281 68.63986 34864 ft 483 kts 90°
2026-04-21 01:49 22.93853 68.71253 34867 ft 482 kts 90°
2026-04-21 01:50 22.93425 68.78497 34870 ft 481 kts 90°
2026-04-21 01:50 22.92993 68.85739 34871 ft 481 kts 90°
2026-04-21 01:51 22.92560 68.92936 34873 ft 480 kts 90°
2026-04-21 01:51 22.92125 69.00097 34871 ft 479 kts 90°
2026-04-21 01:52 22.91470 69.10788 34874 ft 478 kts 90°
2026-04-21 01:53 22.91026 69.17970 34876 ft 477 kts 90°
2026-04-21 01:53 22.90578 69.25163 34876 ft 478 kts 90°
2026-04-21 01:54 22.90127 69.32349 34878 ft 478 kts 90°
2026-04-21 01:54 22.89672 69.39560 34881 ft 479 kts 90°
2026-04-21 01:55 22.89216 69.46723 34878 ft 480 kts 90°
2026-04-21 01:55 22.88753 69.53944 34884 ft 480 kts 90°
2026-04-21 01:56 22.88284 69.61209 34878 ft 482 kts 90°
2026-04-21 01:56 22.87817 69.68418 34881 ft 483 kts 90°
2026-04-21 01:57 22.87365 69.75684 34879 ft 483 kts 90°
2026-04-21 01:57 22.86949 69.82970 34880 ft 484 kts 90°
2026-04-21 01:58 22.86531 69.90256 34884 ft 484 kts 89°
2026-04-21 01:58 22.86105 69.97548 34879 ft 485 kts 90°
2026-04-21 01:59 22.85681 70.04688 34880 ft 485 kts 90°
2026-04-21 01:59 22.85317 70.10755 34879 ft 485 kts 90°
2026-04-21 02:00 22.84877 70.18057 34879 ft 485 kts 90°
2026-04-21 02:00 22.84434 70.25367 34886 ft 485 kts 89°
2026-04-21 02:01 22.83986 70.32676 34885 ft 486 kts 89°
2026-04-21 02:01 22.83536 70.39985 34879 ft 486 kts 89°
2026-04-21 02:02 22.83085 70.47252 34880 ft 486 kts 90°
2026-04-21 02:02 22.82628 70.54548 34898 ft 484 kts 89°
2026-04-21 02:03 22.82170 70.61824 34878 ft 482 kts 89°
2026-04-21 02:03 22.81711 70.69066 34878 ft 480 kts 89°
2026-04-21 02:04 22.81252 70.76277 34881 ft 479 kts 89°
2026-04-21 02:04 22.80995 70.83418 34892 ft 474 kts 83°
2026-04-21 02:05 22.81791 70.90442 34897 ft 469 kts 76°
2026-04-21 02:05 22.82891 70.97419 34888 ft 470 kts 76°
2026-04-21 02:06 22.83950 71.04260 34886 ft 471 kts 76°
2026-04-21 02:06 22.85009 71.11284 34884 ft 472 kts 76°
2026-04-21 02:07 22.86058 71.18319 34876 ft 473 kts 76°
2026-04-21 02:07 22.87105 71.25378 34878 ft 473 kts 76°
2026-04-21 02:08 22.88150 71.32432 34870 ft 474 kts 76°
2026-04-21 02:08 22.89193 71.39488 34872 ft 473 kts 76°
2026-04-21 02:09 22.90231 71.46539 34868 ft 473 kts 76°
2026-04-21 02:09 22.91267 71.53590 34872 ft 473 kts 76°
2026-04-21 02:10 22.92291 71.60584 34868 ft 473 kts 77°
2026-04-21 02:10 22.93319 71.67633 34868 ft 473 kts 77°
2026-04-21 02:11 22.94345 71.74684 34863 ft 473 kts 77°
2026-04-21 02:11 22.95367 71.81733 34863 ft 473 kts 77°
2026-04-21 02:12 22.96386 71.88779 34859 ft 473 kts 77°
2026-04-21 02:12 22.97403 71.95836 34857 ft 474 kts 77°
2026-04-21 02:13 22.98389 72.02703 34853 ft 474 kts 77°
2026-04-21 02:13 22.99403 72.09787 34856 ft 475 kts 77°
2026-04-21 02:14 23.00416 72.16888 34850 ft 476 kts 77°
2026-04-21 02:14 23.01425 72.23985 34854 ft 476 kts 77°
2026-04-21 02:15 23.02435 72.31102 34846 ft 478 kts 77°
2026-04-21 02:15 23.03445 72.38257 34858 ft 480 kts 77°
2026-04-21 02:16 23.04448 72.45382 34860 ft 481 kts 77°
2026-04-21 02:16 23.05459 72.52584 34858 ft 482 kts 78°
2026-04-21 02:17 23.06467 72.59793 34857 ft 483 kts 78°
2026-04-21 02:17 23.07253 72.67055 34863 ft 486 kts 83°
2026-04-21 02:18 23.07638 72.74418 34864 ft 490 kts 84°
2026-04-21 02:18 23.07986 72.81827 34860 ft 492 kts 84°
2026-04-21 02:19 23.08371 72.89253 34854 ft 493 kts 84°
2026-04-21 02:19 23.08776 72.96640 34850 ft 493 kts 84°
2026-04-21 02:20 23.09176 73.03925 34849 ft 495 kts 85°
2026-04-21 02:20 23.09582 73.11409 34852 ft 497 kts 85°
2026-04-21 02:21 23.09984 73.18924 34852 ft 498 kts 85°
2026-04-21 02:21 23.10383 73.26449 34847 ft 499 kts 85°
2026-04-21 02:22 23.10780 73.33983 34833 ft 500 kts 86°
2026-04-21 02:22 23.11173 73.41536 34851 ft 502 kts 86°
2026-04-21 02:23 23.11561 73.49068 34849 ft 503 kts 86°
2026-04-21 02:23 23.11949 73.56668 34849 ft 504 kts 86°
2026-04-21 02:24 23.12334 73.64273 34849 ft 504 kts 86°
2026-04-21 02:24 23.12718 73.71890 34856 ft 505 kts 86°
2026-04-21 02:25 23.13096 73.79525 34868 ft 506 kts 86°
2026-04-21 02:25 23.13472 73.87174 34868 ft 507 kts 86°
2026-04-21 02:26 23.13845 73.94834 34876 ft 507 kts 86°
2026-04-21 02:26 23.14204 74.02260 34858 ft 508 kts 87°
2026-04-21 02:27 23.14571 74.09947 34892 ft 510 kts 88°
2026-04-21 02:27 23.14935 74.17657 34872 ft 512 kts 88°
2026-04-21 02:28 23.15298 74.25413 34894 ft 514 kts 88°
2026-04-21 02:28 23.15658 74.33183 34891 ft 515 kts 88°
2026-04-21 02:29 23.15913 74.40970 34888 ft 516 kts 90°
2026-04-21 02:29 23.16043 74.48726 34910 ft 517 kts 90°
2026-04-21 02:30 23.16170 74.56554 34898 ft 519 kts 90°
2026-04-21 02:30 23.16318 74.64404 34920 ft 519 kts 90°
2026-04-21 02:31 23.16471 74.72256 34920 ft 519 kts 90°
2026-04-21 02:31 23.16622 74.80102 34932 ft 519 kts 90°
2026-04-21 02:32 23.16766 74.87938 34921 ft 518 kts 90°
2026-04-21 02:32 23.16907 74.95773 34929 ft 518 kts 90°
2026-04-21 02:33 23.17039 75.03405 34916 ft 517 kts 90°
2026-04-21 02:33 23.17171 75.11181 34929 ft 518 kts 91°
2026-04-21 02:34 23.17299 75.19029 34938 ft 520 kts 91°
2026-04-21 02:34 23.17424 75.26907 34938 ft 522 kts 91°
2026-04-21 02:35 23.17546 75.34813 34922 ft 523 kts 91°
2026-04-21 02:35 23.17664 75.42730 34944 ft 524 kts 91°
2026-04-21 02:36 23.17779 75.50666 34943 ft 525 kts 91°
2026-04-21 02:36 23.17889 75.58611 34944 ft 526 kts 91°
2026-04-21 02:37 23.17996 75.66567 34942 ft 526 kts 91°
2026-04-21 02:37 23.18099 75.74533 34940 ft 526 kts 91°
2026-04-21 02:38 23.18197 75.82436 34937 ft 527 kts 92°
2026-04-21 02:38 23.18292 75.90402 34928 ft 527 kts 92°
2026-04-21 02:39 23.18383 75.98373 34937 ft 527 kts 92°
2026-04-21 02:39 23.18798 76.06142 34948 ft 529 kts 87°
2026-04-21 02:40 23.19457 76.14111 34918 ft 529 kts 87°
2026-04-21 02:40 23.20116 76.22087 34932 ft 530 kts 88°
2026-04-21 02:41 23.20740 76.30094 34926 ft 531 kts 88°
2026-04-21 02:41 23.21347 76.38107 34926 ft 532 kts 88°
2026-04-21 02:42 23.21950 76.46127 34920 ft 533 kts 88°
2026-04-21 02:42 23.22552 76.54158 34900 ft 533 kts 88°
2026-04-21 02:43 23.23148 76.62149 34920 ft 534 kts 88°
2026-04-21 02:43 23.23745 76.70210 34920 ft 535 kts 88°
2026-04-21 02:44 23.24339 76.78291 34909 ft 536 kts 88°
2026-04-21 02:44 23.24929 76.86374 34909 ft 536 kts 88°
2026-04-21 02:45 23.25515 76.94461 34906 ft 537 kts 89°
2026-04-21 02:45 23.26084 77.02372 34914 ft 539 kts 89°
2026-04-21 02:46 23.26568 77.09146 34903 ft 540 kts 89°
2026-04-21 02:46 23.27241 77.18622 34900 ft 541 kts 89°
2026-04-21 02:47 23.27817 77.26782 34884 ft 542 kts 89°
2026-04-21 02:47 23.28262 77.33643 34903 ft 541 kts 91°
2026-04-21 02:48 23.28086 77.41790 34886 ft 539 kts 97°
2026-04-21 02:48 23.27689 77.49880 34894 ft 539 kts 97°
2026-04-21 02:49 23.27308 77.58037 34884 ft 540 kts 97°
2026-04-21 02:49 23.26962 77.66216 34881 ft 541 kts 97°
2026-04-21 02:50 23.26623 77.74392 34873 ft 542 kts 97°
2026-04-21 02:50 23.26277 77.82584 34878 ft 542 kts 98°
2026-04-21 02:51 23.25924 77.90784 34881 ft 543 kts 98°
2026-04-21 02:51 23.25567 77.99007 34867 ft 544 kts 98°
2026-04-21 02:52 23.25214 78.06970 34881 ft 544 kts 98°
2026-04-21 02:52 23.24846 78.15203 34876 ft 546 kts 98°
2026-04-21 02:53 23.24472 78.23452 34871 ft 546 kts 98°
2026-04-21 02:53 23.24095 78.31707 34873 ft 546 kts 98°
2026-04-21 02:54 23.23714 78.39965 34878 ft 546 kts 98°
2026-04-21 02:54 23.23328 78.48216 34872 ft 546 kts 98°
2026-04-21 02:55 23.22938 78.56479 34872 ft 546 kts 98°
2026-04-21 02:55 23.22546 78.64668 34873 ft 545 kts 98°
2026-04-21 02:56 23.22149 78.72900 34862 ft 545 kts 99°
2026-04-21 02:56 23.21847 78.85319 34878 ft 550 kts 96°
2026-04-21 02:57 23.21785 78.93643 34880 ft 551 kts 96°
2026-04-21 02:57 23.21682 79.01788 34876 ft 551 kts 96°
2026-04-21 02:58 23.21547 79.10066 34869 ft 552 kts 97°
2026-04-21 02:58 23.21402 79.18428 34868 ft 553 kts 97°
2026-04-21 02:59 23.21255 79.26786 34869 ft 553 kts 97°
2026-04-21 02:59 23.21106 79.35155 34874 ft 554 kts 97°
2026-04-21 03:00 23.20953 79.43531 34866 ft 554 kts 97°
2026-04-21 03:00 23.20794 79.51912 34869 ft 555 kts 97°
2026-04-21 03:01 23.20606 79.60254 34873 ft 555 kts 98°
2026-04-21 03:01 23.20251 79.68631 34870 ft 555 kts 99°
2026-04-21 03:02 23.19860 79.77006 34879 ft 555 kts 99°
2026-04-21 03:02 23.19494 79.85409 34887 ft 556 kts 99°
2026-04-21 03:03 23.19136 79.93804 34911 ft 556 kts 99°
2026-04-21 03:03 23.18780 80.02009 34912 ft 556 kts 99°
2026-04-21 03:04 23.18401 80.10367 34905 ft 556 kts 99°
2026-04-21 03:04 23.17967 80.18758 34902 ft 556 kts 99°
2026-04-21 03:05 23.17522 80.27160 34895 ft 557 kts 99°
2026-04-21 03:05 23.17080 80.35578 34887 ft 558 kts 99°
2026-04-21 03:06 23.16639 80.43993 34877 ft 559 kts 99°
2026-04-21 03:06 23.16192 80.52427 34880 ft 559 kts 99°
2026-04-21 03:07 23.15739 80.60876 34875 ft 560 kts 99°
2026-04-21 03:07 23.15284 80.69278 34865 ft 560 kts 99°
2026-04-21 03:08 23.14822 80.77733 34870 ft 560 kts 99°
2026-04-21 03:08 23.14359 80.86178 34872 ft 560 kts 99°
2026-04-21 03:09 23.13898 80.94629 34864 ft 560 kts 99°
2026-04-21 03:09 23.13441 81.02874 34874 ft 560 kts 99°
2026-04-21 03:10 23.12968 81.11317 34857 ft 559 kts 99°
2026-04-21 03:10 23.12493 81.19740 34869 ft 558 kts 99°
2026-04-21 03:11 23.12011 81.28127 34869 ft 559 kts 99°
2026-04-21 03:11 23.11524 81.36573 34867 ft 559 kts 99°
2026-04-21 03:12 23.11036 81.45001 34860 ft 559 kts 99°
2026-04-21 03:12 23.10545 81.53388 34853 ft 559 kts 99°
2026-04-21 03:13 23.10046 81.61816 34852 ft 559 kts 99°
2026-04-21 03:13 23.09541 81.70255 34838 ft 559 kts 99°
2026-04-21 03:14 23.09032 81.78700 34852 ft 559 kts 99°
2026-04-21 03:14 23.08519 81.87146 34841 ft 560 kts 99°
2026-04-21 03:15 23.08004 81.95538 34848 ft 560 kts 99°
2026-04-21 03:15 23.07494 82.03784 34837 ft 560 kts 99°
2026-04-21 03:16 23.06968 82.12232 34836 ft 560 kts 99°
2026-04-21 03:16 23.06467 82.20689 34833 ft 561 kts 98°
2026-04-21 03:17 23.06104 82.29163 34833 ft 561 kts 98°
2026-04-21 03:17 23.05773 82.37574 34833 ft 561 kts 98°
2026-04-21 03:18 23.05416 82.46038 34826 ft 560 kts 98°
2026-04-21 03:18 23.05037 82.54491 34833 ft 560 kts 98°
2026-04-21 03:19 23.04650 82.62933 34833 ft 560 kts 98°
2026-04-21 03:19 23.04261 82.71377 34849 ft 560 kts 98°
2026-04-21 03:20 23.03868 82.79834 34835 ft 560 kts 99°
2026-04-21 03:20 23.03473 82.88279 34859 ft 560 kts 99°
2026-04-21 03:21 23.03071 82.96742 34856 ft 560 kts 99°
2026-04-21 03:21 23.02675 83.04993 34860 ft 560 kts 99°
2026-04-21 03:22 23.02265 83.13444 34869 ft 560 kts 99°
2026-04-21 03:22 23.01850 83.21894 34874 ft 560 kts 99°
2026-04-21 03:23 23.01434 83.30284 34873 ft 560 kts 99°
2026-04-21 03:23 23.01010 83.38733 34876 ft 560 kts 99°
2026-04-21 03:24 23.00583 83.47179 34898 ft 560 kts 99°
2026-04-21 03:24 23.00151 83.55617 34890 ft 560 kts 99°
2026-04-21 03:25 22.99714 83.64052 34889 ft 560 kts 99°
2026-04-21 03:25 22.99273 83.72501 34892 ft 560 kts 99°
2026-04-21 03:26 22.98828 83.80948 34899 ft 560 kts 99°
2026-04-21 03:26 22.98378 83.89375 34893 ft 559 kts 99°
2026-04-21 03:27 22.97924 83.97787 34902 ft 557 kts 99°
2026-04-21 03:27 22.97483 84.05925 34904 ft 556 kts 99°
2026-04-21 03:28 22.97021 84.14293 34912 ft 555 kts 99°
2026-04-21 03:28 22.96450 84.22645 34909 ft 553 kts 100°
2026-04-21 03:29 22.95822 84.30972 34905 ft 553 kts 101°
2026-04-21 03:29 22.95206 84.39254 34915 ft 554 kts 100°
2026-04-21 03:30 22.94598 84.47577 34925 ft 554 kts 100°
2026-04-21 03:30 22.93989 84.55915 34914 ft 555 kts 100°
2026-04-21 03:31 22.93374 84.64265 34924 ft 554 kts 100°
2026-04-21 03:31 22.92753 84.72599 34920 ft 555 kts 100°
2026-04-21 03:32 22.92127 84.80946 34918 ft 555 kts 100°
2026-04-21 03:32 22.91497 84.89295 34926 ft 556 kts 100°
2026-04-21 03:33 22.90862 84.97651 34917 ft 556 kts 100°
2026-04-21 03:33 22.90347 85.04387 34926 ft 556 kts 100°
2026-04-21 03:34 22.89706 85.12735 34918 ft 555 kts 100°
2026-04-21 03:34 22.89060 85.21074 34921 ft 554 kts 100°
2026-04-21 03:35 22.88412 85.29392 34904 ft 554 kts 100°
2026-04-21 03:35 22.87762 85.37706 34910 ft 553 kts 100°
2026-04-21 03:36 22.87106 85.46025 34901 ft 552 kts 100°
2026-04-21 03:36 22.86451 85.54279 34904 ft 552 kts 100°
2026-04-21 03:37 22.85787 85.62592 34886 ft 552 kts 100°
2026-04-21 03:37 22.85120 85.70869 34903 ft 552 kts 100°
2026-04-21 03:38 22.84449 85.79170 34864 ft 552 kts 100°
2026-04-21 03:38 22.83773 85.87473 34855 ft 553 kts 100°
2026-04-21 03:39 22.83097 85.95721 34831 ft 553 kts 100°
2026-04-21 03:39 22.82427 86.03837 34798 ft 553 kts 100°
2026-04-21 03:40 22.81738 86.12151 34806 ft 553 kts 100°
2026-04-21 03:40 22.81068 86.20461 34794 ft 553 kts 99°
2026-04-21 03:41 22.80610 86.28793 34859 ft 554 kts 97°
2026-04-21 03:41 22.80223 86.37084 34848 ft 555 kts 97°
2026-04-21 03:42 22.79801 86.45437 34840 ft 554 kts 98°
2026-04-21 03:42 22.79348 86.53786 34832 ft 554 kts 98°
2026-04-21 03:43 22.78883 86.62134 34828 ft 554 kts 98°
2026-04-21 03:43 22.78416 86.70450 34816 ft 553 kts 98°
2026-04-21 03:44 22.77949 86.78761 34818 ft 552 kts 98°
2026-04-21 03:44 22.77477 86.87073 34808 ft 552 kts 98°
2026-04-21 03:45 22.77004 86.95324 34784 ft 552 kts 98°
2026-04-21 03:45 22.76536 87.03417 34799 ft 550 kts 98°
2026-04-21 03:46 22.76054 87.11689 34793 ft 550 kts 98°
2026-04-21 03:46 22.75567 87.19965 34772 ft 549 kts 98°
2026-04-21 03:47 22.75077 87.28206 34781 ft 548 kts 98°
2026-04-21 03:47 22.74583 87.36450 34779 ft 548 kts 98°
2026-04-21 03:48 22.74084 87.44709 34787 ft 549 kts 98°
2026-04-21 03:48 22.73582 87.52942 34789 ft 551 kts 98°
2026-04-21 03:49 22.73073 87.61230 34782 ft 552 kts 98°
2026-04-21 03:49 22.72558 87.69547 34778 ft 553 kts 98°
2026-04-21 03:50 22.72038 87.77874 34773 ft 554 kts 98°
2026-04-21 03:50 22.71513 87.86211 34774 ft 555 kts 98°
2026-04-21 03:51 22.70983 87.94545 34775 ft 555 kts 98°
2026-04-21 03:51 22.70461 88.02702 34776 ft 555 kts 98°
2026-04-21 03:52 22.69926 88.10991 34764 ft 555 kts 98°
2026-04-21 03:52 22.69383 88.19335 34769 ft 555 kts 98°
2026-04-21 03:53 22.68836 88.27679 34778 ft 554 kts 98°
2026-04-21 03:53 22.68285 88.36014 34775 ft 554 kts 98°
2026-04-21 03:54 22.67714 88.44344 34778 ft 553 kts 100°
2026-04-21 03:54 22.66523 88.52463 34781 ft 548 kts 105°
2026-04-21 03:55 22.65087 88.60579 34779 ft 549 kts 105°
2026-04-21 03:55 22.63684 88.68710 34777 ft 550 kts 105°
2026-04-21 03:56 22.62311 88.76876 34775 ft 551 kts 105°
2026-04-21 03:56 22.60938 88.85033 34781 ft 551 kts 105°
2026-04-21 03:57 22.59555 88.93200 34781 ft 551 kts 104°
2026-04-21 03:57 22.58534 89.01201 34785 ft 554 kts 101°
2026-04-21 03:58 22.57664 89.09491 34792 ft 554 kts 100°
2026-04-21 03:58 22.56793 89.17776 34792 ft 554 kts 101°
2026-04-21 03:59 22.55887 89.26063 34788 ft 554 kts 101°
2026-04-21 04:00 22.54504 89.38428 34796 ft 553 kts 101°
2026-04-21 04:00 22.53575 89.46693 34804 ft 553 kts 101°
2026-04-21 04:01 22.52643 89.54956 34806 ft 553 kts 101°
2026-04-21 04:01 22.51708 89.63220 34801 ft 553 kts 101°
2026-04-21 04:02 22.50768 89.71488 34806 ft 553 kts 101°
2026-04-21 04:02 22.49825 89.79746 34810 ft 553 kts 101°
2026-04-21 04:03 22.48878 89.88002 34809 ft 553 kts 101°
2026-04-21 04:03 22.47926 89.96259 34808 ft 553 kts 101°
2026-04-21 04:04 22.46994 90.04308 34807 ft 553 kts 101°
2026-04-21 04:04 22.46041 90.12503 34813 ft 552 kts 101°
2026-04-21 04:05 22.45078 90.20745 34815 ft 552 kts 101°
2026-04-21 04:05 22.44113 90.28970 34821 ft 551 kts 101°
2026-04-21 04:06 22.43143 90.37196 34825 ft 551 kts 101°
2026-04-21 04:06 22.42172 90.45400 34821 ft 549 kts 101°
2026-04-21 04:07 22.41198 90.53589 34829 ft 548 kts 101°
2026-04-21 04:07 22.40228 90.61710 34837 ft 548 kts 101°
2026-04-21 04:08 22.39248 90.69877 34840 ft 547 kts 101°
2026-04-21 04:08 22.38265 90.78035 34835 ft 547 kts 100°
2026-04-21 04:09 22.37279 90.86185 34847 ft 547 kts 100°
2026-04-21 04:09 22.36289 90.94328 34848 ft 547 kts 100°
2026-04-21 04:10 22.35317 91.02297 34850 ft 547 kts 101°
2026-04-21 04:10 22.34324 91.10399 34855 ft 547 kts 101°
2026-04-21 04:11 22.33322 91.18543 34845 ft 548 kts 100°
2026-04-21 04:11 22.32817 91.22631 34968 ft 550 kts 100°
2026-04-21 04:11 22.32311 91.26722 35292 ft 549 kts 100°
2026-04-21 04:11 22.31806 91.30807 35675 ft 546 kts 100°
2026-04-21 04:12 22.31303 91.34867 36056 ft 544 kts 101°
2026-04-21 04:12 22.30802 91.38902 36403 ft 542 kts 100°
2026-04-21 04:12 22.30325 91.42935 36701 ft 541 kts 100°
2026-04-21 04:13 22.29425 91.50990 36843 ft 544 kts 99°
2026-04-21 04:13 22.28520 91.59087 36838 ft 542 kts 99°
2026-04-21 04:14 22.27602 91.67146 36848 ft 539 kts 100°
2026-04-21 04:14 22.26680 91.75163 36873 ft 538 kts 100°
2026-04-21 04:15 22.26148 91.83244 36845 ft 541 kts 91°
2026-04-21 04:15 22.26847 91.91349 36842 ft 543 kts 82°
2026-04-21 04:16 22.28048 91.99400 36861 ft 543 kts 81°
2026-04-21 04:16 22.29179 92.07240 36848 ft 544 kts 82°
2026-04-21 04:17 22.30286 92.15326 36853 ft 545 kts 82°
2026-04-21 04:17 22.31385 92.23418 36849 ft 545 kts 82°
2026-04-21 04:18 22.32494 92.31542 36854 ft 546 kts 82°
2026-04-21 04:18 22.33609 92.39654 36860 ft 546 kts 82°
2026-04-21 04:19 22.34716 92.47727 36855 ft 547 kts 82°
2026-04-21 04:19 22.35825 92.55858 36862 ft 547 kts 82°
2026-04-21 04:20 22.36927 92.63991 36870 ft 547 kts 82°
2026-04-21 04:20 22.38028 92.72132 36897 ft 548 kts 82°
2026-04-21 04:21 22.39130 92.80311 36866 ft 550 kts 82°
2026-04-21 04:21 22.40047 92.87100 36894 ft 549 kts 82°
2026-04-21 04:22 22.41144 92.95250 36887 ft 546 kts 82°
2026-04-21 04:22 22.42202 93.03170 36913 ft 545 kts 82°
2026-04-21 04:23 22.43284 93.11298 36943 ft 547 kts 82°
2026-04-21 04:23 22.44368 93.19457 36919 ft 550 kts 82°
2026-04-21 04:24 22.45450 93.27655 36935 ft 552 kts 82°
2026-04-21 04:24 22.46533 93.35876 36904 ft 552 kts 82°
2026-04-21 04:25 22.47605 93.44039 36928 ft 551 kts 82°
2026-04-21 04:25 22.48679 93.52266 36886 ft 552 kts 82°
2026-04-21 04:26 22.49748 93.60487 36873 ft 553 kts 82°
2026-04-21 04:26 22.50821 93.68727 36872 ft 550 kts 82°
2026-04-21 04:27 22.51877 93.76909 36883 ft 550 kts 82°
2026-04-21 04:27 22.52924 93.85093 36842 ft 548 kts 82°
2026-04-21 04:28 22.53966 93.93228 36837 ft 548 kts 82°
2026-04-21 04:28 22.54981 94.01109 36815 ft 547 kts 82°
2026-04-21 04:29 22.56007 94.09254 36816 ft 547 kts 82°
2026-04-21 04:29 22.57036 94.17423 36800 ft 548 kts 82°
2026-04-21 04:30 22.58065 94.25593 36798 ft 548 kts 82°
2026-04-21 04:30 22.59091 94.33755 36786 ft 546 kts 82°
2026-04-21 04:31 22.60109 94.41896 36789 ft 545 kts 82°
2026-04-21 04:31 22.61113 94.49967 36778 ft 543 kts 82°
2026-04-21 04:32 22.62114 94.58058 36789 ft 542 kts 82°
2026-04-21 04:32 22.63113 94.66150 36795 ft 541 kts 82°
2026-04-21 04:33 22.64104 94.74225 36787 ft 541 kts 82°
2026-04-21 04:33 22.65092 94.82311 36790 ft 542 kts 82°
2026-04-21 04:34 22.66078 94.90404 36787 ft 543 kts 82°
2026-04-21 04:34 22.67061 94.98507 36791 ft 543 kts 82°
2026-04-21 04:35 22.68014 95.06398 36785 ft 544 kts 82°
2026-04-21 04:35 22.68993 95.14541 36785 ft 545 kts 82°
2026-04-21 04:36 22.69967 95.22679 36800 ft 545 kts 82°
2026-04-21 04:36 22.70940 95.30843 36788 ft 546 kts 82°
2026-04-21 04:37 22.71909 95.39013 36782 ft 547 kts 82°
2026-04-21 04:37 22.72874 95.47180 36783 ft 547 kts 82°
2026-04-21 04:38 22.73829 95.55297 36786 ft 547 kts 82°
2026-04-21 04:38 22.74787 95.63486 36782 ft 546 kts 82°
2026-04-21 04:39 22.75739 95.71650 36781 ft 546 kts 82°
2026-04-21 04:39 22.76686 95.79815 36783 ft 546 kts 82°
2026-04-21 04:40 22.77629 95.87977 36781 ft 546 kts 82°
2026-04-21 04:40 22.78567 95.96132 36795 ft 545 kts 82°
2026-04-21 04:41 22.79479 96.04099 36792 ft 545 kts 82°
2026-04-21 04:41 22.80402 96.12201 36811 ft 546 kts 82°
2026-04-21 04:42 22.81328 96.20373 36813 ft 545 kts 82°
2026-04-21 04:42 22.82251 96.28539 36840 ft 546 kts 82°
2026-04-21 04:43 22.83171 96.36721 36834 ft 546 kts 82°
2026-04-21 04:43 22.84084 96.44901 36849 ft 546 kts 82°
2026-04-21 04:44 22.84995 96.53078 36846 ft 548 kts 82°
2026-04-21 04:44 22.85901 96.61238 36850 ft 549 kts 82°
2026-04-21 04:45 22.86808 96.69460 36856 ft 549 kts 82°
2026-04-21 04:45 22.87710 96.77687 36846 ft 550 kts 82°
2026-04-21 04:46 22.88608 96.85917 36862 ft 549 kts 82°
2026-04-21 04:46 22.89504 96.94153 36847 ft 549 kts 82°
2026-04-21 04:47 22.90372 97.02174 36849 ft 547 kts 82°
2026-04-21 04:47 22.91253 97.10366 36860 ft 547 kts 82°
2026-04-21 04:48 22.92125 97.18514 36838 ft 547 kts 82°
2026-04-21 04:48 22.92997 97.26699 36870 ft 546 kts 82°
2026-04-21 04:49 22.93870 97.34899 36875 ft 547 kts 82°
2026-04-21 04:49 22.94735 97.43110 36854 ft 548 kts 82°
2026-04-21 04:50 22.95599 97.51346 36852 ft 549 kts 82°
2026-04-21 04:50 22.96460 97.59587 36839 ft 550 kts 82°
2026-04-21 04:51 22.97319 97.67841 36840 ft 550 kts 82°
2026-04-21 04:51 22.98515 97.76024 36840 ft 548 kts 74°
2026-04-21 04:52 23.00839 97.83793 36841 ft 544 kts 66°
2026-04-21 04:52 23.03549 97.91459 36858 ft 543 kts 66°
2026-04-21 04:53 23.06231 97.99138 36849 ft 543 kts 66°
2026-04-21 04:53 23.08802 98.06643 36867 ft 543 kts 67°
2026-04-21 04:54 23.11421 98.14350 36855 ft 543 kts 67°
2026-04-21 04:54 23.14034 98.22046 36859 ft 543 kts 67°
2026-04-21 04:55 23.16641 98.29731 36855 ft 542 kts 67°
2026-04-21 04:55 23.19221 98.37346 36868 ft 539 kts 67°
2026-04-21 04:56 23.21817 98.45020 36865 ft 541 kts 67°
2026-04-21 04:56 23.24412 98.52705 36856 ft 542 kts 67°
2026-04-21 04:57 23.27008 98.60408 36860 ft 542 kts 67°
2026-04-21 04:57 23.29600 98.68116 36868 ft 542 kts 67°
2026-04-21 04:58 23.32186 98.75828 36884 ft 541 kts 67°
2026-04-21 04:58 23.34770 98.83534 36883 ft 542 kts 67°
2026-04-21 04:59 23.37335 98.91199 36879 ft 542 kts 67°
2026-04-21 04:59 23.39819 98.98952 36859 ft 543 kts 68°
2026-04-21 05:00 23.42164 99.06543 36881 ft 541 kts 69°
2026-04-21 05:00 23.45773 99.18183 36899 ft 540 kts 68°
2026-04-21 05:01 23.48186 99.25923 36904 ft 540 kts 68°
2026-04-21 05:01 23.50595 99.33681 36868 ft 541 kts 68°
2026-04-21 05:02 23.53165 99.41344 36885 ft 536 kts 62°
2026-04-21 05:02 23.56641 99.48410 36897 ft 531 kts 56°
2026-04-21 05:03 23.60362 99.55360 36892 ft 531 kts 56°
2026-04-21 05:03 23.64058 99.62344 36880 ft 532 kts 56°
2026-04-21 05:04 23.67717 99.69352 36886 ft 531 kts 56°
2026-04-21 05:04 23.71374 99.76401 36888 ft 533 kts 56°
2026-04-21 05:05 23.75033 99.83443 36879 ft 533 kts 56°
2026-04-21 05:05 23.78694 99.90502 36911 ft 535 kts 56°
2026-04-21 05:06 23.82337 99.97537 36876 ft 535 kts 56°
2026-04-21 05:06 23.85892 100.04428 36847 ft 533 kts 56°
2026-04-21 05:07 23.89533 100.11471 36877 ft 531 kts 56°
2026-04-21 05:07 23.93162 100.18507 36868 ft 531 kts 56°
2026-04-21 05:08 23.96780 100.25528 36865 ft 529 kts 56°
2026-04-21 05:08 24.00368 100.32503 36868 ft 526 kts 56°
2026-04-21 05:09 24.03346 100.38311 36878 ft 528 kts 57°
2026-04-21 05:09 24.07550 100.46510 36845 ft 533 kts 57°
2026-04-21 05:10 24.10598 100.52463 36845 ft 536 kts 57°
2026-04-21 05:10 24.14242 100.59605 36817 ft 538 kts 57°
2026-04-21 05:11 24.17837 100.66789 36826 ft 537 kts 57°
2026-04-21 05:11 24.21398 100.73935 36821 ft 536 kts 57°
2026-04-21 05:12 24.24962 100.81075 36812 ft 532 kts 57°
2026-04-21 05:12 24.28514 100.88185 36812 ft 529 kts 57°
2026-04-21 05:13 24.32045 100.95265 36835 ft 530 kts 57°
2026-04-21 05:13 24.35484 101.02166 36825 ft 532 kts 57°
2026-04-21 05:14 24.39044 101.09331 36815 ft 536 kts 57°
2026-04-21 05:14 24.42597 101.16490 36810 ft 539 kts 57°
2026-04-21 05:15 24.46185 101.23733 36807 ft 540 kts 57°
2026-04-21 05:15 24.49775 101.30989 36806 ft 540 kts 57°
2026-04-21 05:16 24.53350 101.38231 36801 ft 536 kts 57°
2026-04-21 05:16 24.56892 101.45414 36801 ft 532 kts 57°
2026-04-21 05:17 24.60408 101.52546 36779 ft 530 kts 57°
2026-04-21 05:17 24.63907 101.59690 36786 ft 533 kts 58°
2026-04-21 05:18 24.67395 101.66880 36786 ft 538 kts 58°
2026-04-21 05:18 24.70937 101.74213 36783 ft 541 kts 58°
2026-04-21 05:19 24.74435 101.81468 36777 ft 540 kts 58°
2026-04-21 05:19 24.77945 101.88755 36782 ft 538 kts 58°
2026-04-21 05:20 24.81451 101.96044 36776 ft 538 kts 58°
2026-04-21 05:20 24.84857 102.03130 36793 ft 534 kts 58°
2026-04-21 05:21 24.88333 102.10374 36798 ft 533 kts 57°
2026-04-21 05:21 24.91788 102.17577 36793 ft 530 kts 58°
2026-04-21 05:22 24.95201 102.24713 36805 ft 530 kts 58°
2026-04-21 05:22 24.98640 102.31921 36802 ft 532 kts 58°
2026-04-21 05:23 25.02084 102.39141 36808 ft 533 kts 58°
2026-04-21 05:23 25.05479 102.46435 36774 ft 536 kts 65°
2026-04-21 05:24 25.06422 102.50427 36794 ft 542 kts 83°
2026-04-21 05:24 25.06406 102.54587 36816 ft 545 kts 97°
2026-04-21 05:24 25.05512 102.58646 36822 ft 544 kts 114°
2026-04-21 05:24 25.03883 102.62387 36894 ft 541 kts 120°
2026-04-21 05:25 25.00401 102.69725 36926 ft 545 kts 119°
2026-04-21 05:25 24.97000 102.77215 36945 ft 547 kts 118°
2026-04-21 05:26 24.93663 102.84783 36980 ft 548 kts 118°
2026-04-21 05:26 24.90324 102.92337 36945 ft 548 kts 117°
2026-04-21 05:27 24.87021 102.99894 36902 ft 547 kts 117°
2026-04-21 05:27 24.83808 103.07252 36841 ft 545 kts 117°
2026-04-21 05:28 24.80538 103.14715 36761 ft 544 kts 117°
2026-04-21 05:28 24.77246 103.22203 36745 ft 543 kts 117°
2026-04-21 05:29 24.73957 103.29670 36756 ft 542 kts 117°
2026-04-21 05:29 24.70665 103.37137 36744 ft 543 kts 117°
2026-04-21 05:30 24.67363 103.44614 36752 ft 543 kts 117°
2026-04-21 05:30 24.64058 103.52083 36765 ft 543 kts 117°
2026-04-21 05:31 24.60743 103.59568 36767 ft 545 kts 117°
2026-04-21 05:31 24.57419 103.67058 36758 ft 544 kts 117°
2026-04-21 05:32 24.54333 103.74580 36748 ft 544 kts 111°
2026-04-21 05:32 24.52309 103.82583 36756 ft 543 kts 103°
2026-04-21 05:33 24.50665 103.90683 36758 ft 544 kts 103°
2026-04-21 05:33 24.48986 103.98804 36717 ft 545 kts 103°
2026-04-21 05:34 24.47302 104.06724 36729 ft 547 kts 103°
2026-04-21 05:34 24.45564 104.14832 36698 ft 544 kts 103°
2026-04-21 05:35 24.43814 104.22926 36707 ft 546 kts 103°
2026-04-21 05:35 24.42071 104.30998 36707 ft 548 kts 103°
2026-04-21 05:36 24.40315 104.39136 36683 ft 547 kts 103°
2026-04-21 05:36 24.38560 104.47251 36702 ft 547 kts 104°
2026-04-21 05:37 24.36788 104.55373 36684 ft 547 kts 103°
2026-04-21 05:37 24.35012 104.63490 36673 ft 548 kts 103°
2026-04-21 05:38 24.33245 104.71625 36681 ft 548 kts 103°
2026-04-21 05:38 24.31467 104.79751 36696 ft 547 kts 104°
2026-04-21 05:39 24.29688 104.87859 36678 ft 547 kts 104°
2026-04-21 05:39 24.27907 104.95925 36674 ft 547 kts 104°
2026-04-21 05:40 24.26162 105.03824 36665 ft 545 kts 103°
2026-04-21 05:40 24.24377 105.11895 36677 ft 543 kts 104°
2026-04-21 05:41 24.22594 105.19926 36683 ft 542 kts 103°
2026-04-21 05:41 24.20743 105.27934 36689 ft 542 kts 105°
2026-04-21 05:42 24.18788 105.35903 36683 ft 541 kts 105°
2026-04-21 05:42 24.16846 105.43821 36668 ft 541 kts 105°
2026-04-21 05:43 24.14913 105.51774 36664 ft 540 kts 105°
2026-04-21 05:43 24.12994 105.59707 36685 ft 538 kts 105°
2026-04-21 05:44 24.11049 105.67632 36682 ft 540 kts 105°
2026-04-21 05:44 24.09211 105.75611 36690 ft 541 kts 102°
2026-04-21 05:45 24.07657 105.83678 36691 ft 543 kts 101°
2026-04-21 05:45 24.06120 105.91764 36685 ft 542 kts 101°
2026-04-21 05:46 24.04531 105.99809 36695 ft 540 kts 102°
2026-04-21 05:46 24.02953 106.07653 36693 ft 540 kts 102°
2026-04-21 05:47 24.01332 106.15657 36694 ft 538 kts 102°
2026-04-21 05:47 23.99737 106.23578 36708 ft 537 kts 102°
2026-04-21 05:48 23.98129 106.31559 36712 ft 538 kts 102°
2026-04-21 05:48 23.96505 106.39562 36718 ft 538 kts 102°
2026-04-21 05:49 23.94881 106.47547 36701 ft 537 kts 102°
2026-04-21 05:49 23.93256 106.55517 36721 ft 537 kts 102°
2026-04-21 05:50 23.92099 106.62179 36710 ft 535 kts 95°
2026-04-21 05:50 23.91463 106.71604 36727 ft 534 kts 92°
2026-04-21 05:51 23.90999 106.79716 36723 ft 534 kts 92°
2026-04-21 05:51 23.90490 106.87823 36727 ft 534 kts 92°
2026-04-21 05:52 23.89948 106.95926 36737 ft 534 kts 92°
2026-04-21 05:52 23.89409 107.03819 36731 ft 534 kts 92°
2026-04-21 05:53 23.88860 107.11873 36736 ft 534 kts 92°
2026-04-21 05:53 23.88305 107.19969 36755 ft 534 kts 92°
2026-04-21 05:54 23.87747 107.28069 36746 ft 535 kts 92°
2026-04-21 05:54 23.87184 107.36181 36754 ft 536 kts 92°
2026-04-21 05:55 23.86618 107.44265 36764 ft 536 kts 93°
2026-04-21 05:55 23.86043 107.52403 36772 ft 536 kts 93°
2026-04-21 05:56 23.85562 107.59159 36760 ft 536 kts 93°
2026-04-21 05:56 23.84982 107.67269 36785 ft 535 kts 93°
2026-04-21 05:57 23.84399 107.75379 36789 ft 535 kts 93°
2026-04-21 05:57 23.83810 107.83494 36783 ft 536 kts 93°
2026-04-21 05:58 23.83313 107.91602 36793 ft 534 kts 91°
2026-04-21 05:58 23.82938 107.99711 36791 ft 533 kts 91°
2026-04-21 05:59 23.82549 108.07614 36787 ft 533 kts 91°
2026-04-21 06:00 23.81913 108.19673 36799 ft 532 kts 92°
2026-04-21 06:00 23.81460 108.27736 36791 ft 532 kts 92°
2026-04-21 06:01 23.80995 108.35816 36791 ft 533 kts 92°
2026-04-21 06:01 23.80530 108.43898 36796 ft 533 kts 92°
2026-04-21 06:02 23.80063 108.51990 36799 ft 533 kts 92°
2026-04-21 06:02 23.79597 108.60019 36797 ft 533 kts 92°
2026-04-21 06:03 23.79122 108.68096 36789 ft 533 kts 92°
2026-04-21 06:03 23.78643 108.76169 36790 ft 532 kts 92°
2026-04-21 06:04 23.78161 108.84231 36799 ft 531 kts 91°
2026-04-21 06:04 23.77673 108.92296 36795 ft 532 kts 91°
2026-04-21 06:05 23.77194 109.00190 36789 ft 532 kts 92°
2026-04-21 06:05 23.76703 109.08185 36787 ft 532 kts 92°